Weather History for LFCR - December, 2012

Change the Weather History Date:

Friday, December 7, 2012

  Actual Average Record
Temperature  
Mean Temperature 29 °F -  
Max Temperature 37 °F - - ()
Min Temperature 21 °F - - ()
Degree Days  
Heating Degree Days 36    
Moisture  
Dew Point 28 °F    
Average Humidity 85    
Maximum Humidity 100    
Minimum Humidity 64    
Precipitation  
Precipitation 0.00 in - - ()
Sea Level Pressure  
Sea Level Pressure 29.84 in    
Wind  
Wind Speed 7 mph ()    
Max Wind Speed 17 mph    
Max Gust Speed -    
Visibility 5.5 miles    
Events Rain , Snow    
T = Trace of Precipitation, MM = Missing Value Source: Averaged Metar Reports

Daily Weather History Graph

Daily Weather History Graph

Search for Another Location

Airport or City:

Trip Planner

Search our weather history database for the weather conditions in past years. The results will help you decide how hot, cold, wet, or windy it might be!

Date:

Astronomy

Dec. 07, 2012 Rise Set
Actual Time 8:12 AM CET 5:10 PM CET
Civil Twilight 7:39 AM CET 5:43 PM CET
Nautical Twilight 7:03 AM CET 6:20 PM CET
Astronomical Twilight 6:27 AM CET 6:55 PM CET
Moon 1:01 AM CET 1:11 PM CET
Length of Visible Light 10h 04m
Length of Day
8h 57m
Last Quarter, 41% of the Moon is Illuminated
Dec 7
Last Quarter
Dec 13
New
Dec 20
First Quarter
Dec 28
Full
Jan 5
Last Quarter

Hourly Weather History & Observations

Time (CET) Temp. Windchill Dew Point Humidity Pressure Visibility Wind Dir Wind Speed Gust Speed Precip Events Conditions
12:00 AM 23.0 °F 15.8 °F 19.4 °F 86% 29.98 in 5.0 mi SE 5.8 mph - N/A   Unknown
12:30 AM 23.0 °F 17.0 °F 21.2 °F 93% 29.95 in 3.7 mi SE 4.6 mph - N/A   Unknown
1:00 AM 23.0 °F 15.8 °F 19.4 °F 86% 29.95 in 5.0 mi SE 5.8 mph - N/A   Unknown
1:30 AM 21.2 °F 14.9 °F 17.6 °F 86% 29.95 in 5.6 mi ESE 4.6 mph - N/A   Unknown
2:00 AM 21.2 °F 16.4 °F 17.6 °F 86% 29.95 in 4.3 mi ESE 3.5 mph - N/A   Unknown
2:30 AM 24.8 °F 19.1 °F 19.4 °F 80% 29.92 in 6.2 mi East 4.6 mph - N/A   Unknown
3:00 AM 24.8 °F 19.1 °F 19.4 °F 80% 29.92 in 6.2 mi ESE 4.6 mph - N/A   Unknown
3:30 AM 24.8 °F 20.5 °F 19.4 °F 80% 29.92 in 6.2 mi ESE 3.5 mph - N/A   Unknown
4:00 AM 24.8 °F 20.5 °F 19.4 °F 80% 29.89 in 6.2 mi East 3.5 mph - N/A   Unknown
4:30 AM 24.8 °F 17.9 °F 19.4 °F 80% 29.89 in 6.2 mi East 5.8 mph - N/A   Unknown
5:00 AM 26.6 °F - 21.2 °F 80% 29.89 in 6.2 mi SE 2.3 mph - N/A   Overcast
5:30 AM 26.6 °F 22.6 °F 19.4 °F 74% 29.86 in 6.2 mi ESE 3.5 mph - N/A   Unknown
6:00 AM 26.6 °F 21.2 °F 19.4 °F 74% 29.86 in 6.2 mi East 4.6 mph - N/A   Unknown
6:30 AM 28.4 °F 21.2 °F 19.4 °F 69% 29.83 in 6.2 mi East 6.9 mph - N/A   Overcast
7:00 AM 28.4 °F - 23.0 °F 80% 29.83 in 6.2 mi SE 2.3 mph - N/A   Overcast
7:30 AM 28.4 °F 24.6 °F 21.2 °F 74% 29.83 in 6.2 mi ESE 3.5 mph - N/A   Overcast
8:00 AM 30.2 °F 26.7 °F 19.4 °F 64% 29.83 in 6.2 mi ESE 3.5 mph - N/A   Overcast
8:30 AM 30.2 °F 26.7 °F 21.2 °F 69% 29.80 in 6.2 mi East 3.5 mph - N/A   Overcast
9:00 AM 30.2 °F 24.3 °F 21.2 °F 69% 29.83 in 6.2 mi ENE 5.8 mph - N/A   Overcast
9:30 AM 32.0 °F 27.5 °F 23.0 °F 69% 29.80 in 6.2 mi ESE 4.6 mph - N/A   Overcast
10:00 AM 33.8 °F 28.6 °F 24.8 °F 70% 29.80 in 6.2 mi SE 5.8 mph - N/A   Overcast
10:30 AM 35.6 °F 32.8 °F 24.8 °F 65% 29.80 in 6.2 mi SSW 3.5 mph - N/A   Overcast
11:00 AM 37.4 °F 30.8 °F 28.4 °F 70% 29.77 in 6.2 mi SW 9.2 mph - N/A Rain Light Rain
11:30 AM 35.6 °F 26.2 °F 32.0 °F 87% 29.77 in - SW 15.0 mph - N/A Rain Rain
12:00 PM 35.6 °F 27.5 °F 33.8 °F 93% 29.77 in 6.2 mi SW 11.5 mph - N/A   Overcast
12:30 PM 33.8 °F 24.8 °F 32.0 °F 93% 29.77 in - NW 12.7 mph - N/A Rain , Snow Light Snow
1:00 PM 35.6 °F 30.7 °F 33.8 °F 93% 29.77 in - WSW 5.8 mph - N/A Rain , Snow Light Snow
1:30 PM 37.4 °F 31.4 °F 35.6 °F 93% 29.74 in 5.0 mi West 8.1 mph - N/A Rain Light Rain
2:00 PM 37.4 °F 30.3 °F 37.4 °F 100% 29.74 in 2.8 mi West 10.4 mph - N/A Rain Light Rain
2:30 PM 37.4 °F 30.3 °F 35.6 °F 93% 29.74 in 3.7 mi WNW 10.4 mph - N/A Rain Light Rain
3:00 PM 35.6 °F 27.1 °F 33.8 °F 93% 29.77 in 0.8 mi NW 12.7 mph - N/A Rain Light Rain
3:30 PM 35.6 °F 27.1 °F 35.6 °F 100% 29.77 in - NW 12.7 mph - N/A   Mist
4:00 PM 35.6 °F 27.1 °F 35.6 °F 100% 29.77 in 1.6 mi NW 12.7 mph - N/A   Overcast
4:30 PM 35.6 °F 27.1 °F 33.8 °F 93% 29.80 in 4.3 mi WNW 12.7 mph - N/A   Unknown
5:00 PM 35.6 °F 27.5 °F 33.8 °F 93% 29.80 in 6.2 mi WNW 11.5 mph - N/A   Overcast
5:30 PM 35.6 °F 28.0 °F 33.8 °F 93% 29.80 in 6.2 mi NW 10.4 mph - N/A   Overcast
6:00 PM 35.6 °F 28.0 °F 33.8 °F 93% 29.80 in 4.3 mi NW 10.4 mph - N/A   Overcast
6:30 PM 35.6 °F 27.5 °F 33.8 °F 93% 29.83 in - NW 11.5 mph - N/A   Overcast
7:00 PM 35.6 °F 27.5 °F 35.6 °F 100% 29.83 in 3.7 mi NW 11.5 mph - N/A   Overcast
7:30 PM 35.6 °F 27.5 °F 33.8 °F 93% 29.86 in 6.2 mi NW 11.5 mph - N/A   Mostly Cloudy
8:00 PM 35.6 °F 27.5 °F 35.6 °F 100% 29.86 in 5.0 mi NW 11.5 mph - N/A   Overcast
8:30 PM 35.6 °F 28.0 °F 33.8 °F 93% 29.86 in 6.2 mi WNW 10.4 mph - N/A   Overcast
9:00 PM 35.6 °F 27.5 °F 33.8 °F 93% 29.86 in 6.2 mi WNW 11.5 mph - N/A   Overcast
9:30 PM 37.4 °F 28.2 °F 33.8 °F 87% 29.89 in 6.2 mi WNW 16.1 mph - N/A   Mostly Cloudy
10:00 PM 37.4 °F 28.2 °F 32.0 °F 81% 29.89 in 6.2 mi WNW 16.1 mph - N/A   Overcast
10:30 PM 37.4 °F 27.8 °F 32.0 °F 81% 29.89 in 6.2 mi WNW 17.3 mph - N/A   Mostly Cloudy
11:00 PM 35.6 °F 26.6 °F 32.0 °F 87% 29.89 in 6.2 mi WNW 13.8 mph - N/A   Overcast
11:30 PM 35.6 °F 26.6 °F 32.0 °F 87% 29.92 in 6.2 mi WNW 13.8 mph - N/A   Mostly Cloudy